Flag for Germany Weather past 2 weeks in Kulmbach, Bavaria, Germany

Now
75 °F

Sunny.


Feels Like: 78 °F
Forecast: 60 / 86 °F
Wind: 10 mph from Northeast

Location: Hof Airport

Current Time: Jul 1, 2015 at 9:59:29 PM

Latest Report: Jul 1, 2015 at 7:50 PM


Visibility: 10 mi

Pressure: 30.18 "Hg

Humidity: 47%

Dew point: 54 °F

Location of KulmbachLocation

Historic Weather in Kulmbach — Graph

°F

Kulmbach temperature yesterday

Maximum temperature yesterday: 75 °F (at 2:20 PM)
Minimum temperature yesterday: 57 °F (at 6:50 AM)
Average temperature yesterday: 70 °F

Past Weeks' High & Low Weather Summary

 TemperatureHumidityPressure
High84 °F (Jul 1, 4:20 PM)94% (Jun 20, 1:20 PM)30.24 "Hg (Jun 20, 1:20 PM)
Low45 °F (Jun 19, 9:20 AM)26% (Jul 1, 3:50 PM)29.74 "Hg (Jun 23, 6:50 AM)
Average60 °F65%30.09 "Hg
* Reported Jun 17 12:20 PM — Jul 1 7:50 PM, Kulmbach, Weather by CustomWeather, © 2015

Note: Actual official high and low records may vary slightly from our data, if they occured in-between our weather recording intervals... More about our weather records

Advertising

Kulmbach weather history for previous 24 hours

 ConditionsComfort  
Time TempWeatherWind HumidityBarometerVisibility
7:50 PM
Wed, Jul 1
75 °FSunny.10 mph47%30.18 "Hg10 mi
7:20 PM77 °FSunny.10 mph44%30.18 "Hg10 mi
6:50 PM79 °FSunny.8 mph42%30.18 "Hg10 mi
6:20 PM81 °FPassing clouds.8 mph37%30.18 "HgN/A
5:50 PM82 °FSunny.1 mph28%30.18 "Hg10 mi
5:20 PM82 °FSunny.2 mph28%30.18 "Hg10 mi
4:50 PM81 °FSunny.2 mph30%30.18 "Hg10 mi
4:20 PM84 °FPassing clouds.5 mph31%30.21 "HgN/A
3:50 PM82 °FPassing clouds.6 mph26%30.18 "HgN/A
3:20 PM81 °FPassing clouds.6 mph32%30.21 "HgN/A
2:50 PM81 °FPassing clouds.5 mph28%30.21 "HgN/A
2:20 PM81 °FSunny.6 mph30%30.21 "Hg10 mi
1:50 PM81 °FPassing clouds.6 mph30%30.21 "HgN/A
1:20 PM79 °FSunny.6 mph32%30.21 "Hg10 mi
12:50 PM77 °FSunny.6 mph36%30.21 "Hg10 mi
12:20 PM77 °FSunny.6 mph42%30.21 "Hg10 mi
11:50 AM75 °FSunny.5 mph39%30.21 "Hg10 mi
11:20 AM75 °FPassing clouds.7 mph44%30.21 "HgN/A
10:50 AM73 °FPassing clouds.6 mph47%30.21 "HgN/A
10:20 AM73 °FPassing clouds.6 mph50%30.24 "HgN/A
9:50 AM72 °FPassing clouds.6 mph53%30.21 "HgN/A
9:20 AM70 °FPassing clouds.5 mph53%30.24 "HgN/A
8:50 AM68 °FPassing clouds.5 mph56%30.21 "HgN/A
8:20 AM66 °FPassing clouds.5 mph56%30.21 "HgN/A
7:50 AM66 °FSunny.No wind60%30.21 "Hg10 mi
7:20 AM63 °FSunny.No wind64%30.21 "Hg10 mi
6:52 AM61 °FSunny.No wind72%30.21 "Hg10 mi
Weather by CustomWeather, © 2015

See weather overviewHow to use our weather pages